GALAXY 3C (G-3C)

Last updated on Sun Apr 27 2025 00:02:38 GMT+0000 (Coordinated Universal Time)

1 27445U 02030A 25116.43113256 -.00000147 00000+0 00000+0 0 9998 2 27445 2.6547 83.2740 0002843 48.8081 142.9559 1.00270664 83774
UTC large
Height (km)
Speed (km/s)
/
Latitude / Longitude
Inclination (degrees)
Orbital Period (minutes)
Azimuth
Elevation
Range (km)
Doppler Factor

Next 0 passes for location: London (51.5072 / 0.1276)

Sorry there are no passes over London.